Location: Boitzum
(52.1496°N, 9.6943°E)
Time: 22:41:16
(UTC+00:00)

BREEZE-M DEB (TANK) - Visible Passes

Search period start: 18 April 2026 00:00
Search period end: 28 April 2026 00:00
Orbit: 312 x 11304 km, 49.7° (Epoch: 18 April)

Date Brightness Start Highest point End Pass type
(mag) Time Alt. Az. Time Alt. Az. Time Alt. Az.
19 Apr 6.8 19:56:13 10° WNW 20:10:04 24° WSW 20:15:48 10° SSW visible
21 Apr 7.1 20:20:57 10° WNW 20:30:03 17° W 20:35:00 10° SW visible
23 Apr 7.5 20:48:52 10° W 20:49:41 10° W 20:50:28 10° W visible
24 Apr 6.8 18:47:53 10° WNW 19:08:12 33° WSW 19:14:57 10° S visible
26 Apr 7.1 19:12:22 10° WNW 19:28:11 24° WSW 19:34:39 10° SSW visible
